{"data":{"norad_id":46494,"intl_designator":"2020-068J","name":"NORBI","alt_names":[],"object_type":"PAYLOAD","status":"ACTIVE","operator":null,"country":"CIS","launch_date":"2020-09-28","launch_site_code":"PLMSC","launch_vehicle":null,"mission":null,"orbit_class":"UNKNOWN","rcs_meters":null,"size_class":null,"mass_kg":null,"dimensions":null,"purposes":[],"wikipedia_slug":null,"has_3d_model":false,"image_url":null,"decayed_at":null,"tle_current":{"epoch":"2026-05-25T03:26:58.056000Z","epoch_age_seconds":69900,"freshness":"FRESH","line1":"1 46494U 20068J   26145.14372750  .00020030  00000+0  39340-3 0  9996","line2":"2 46494  97.8642 159.0967 0005870   1.2166 358.9096 15.47339779312649","mean_motion":15.47339779,"eccentricity":0.000587,"inclination_deg":97.8642,"raan_deg":159.0967,"arg_perigee_deg":1.2166,"mean_anomaly_deg":358.9096,"bstar":0.0003934,"rev_number":31264,"period_min":93.062947100774,"perigee_km":420.51860448983,"apogee_km":428.50491413326,"semimajor_km":6802.6487593115,"source":"CELESTRAK","updated_at":"2026-05-25T13:37:56.324752Z"}}}